When you browse on this site, cookies collect data to enhance your experience and personalize the content and advertising you see.
Visit our Privacy Policy to learn more. By continuing to use the site, you agree to this use of cookies and data.
  • In Spain
  • List of Countries
  • For 7 days
  • Water Temperature
  • Weather Map
  • Weather Widgets
  • user-avatar
    Login

    Hourly Weather Marianske Lazne

    Today, 4 June, Thursday

    Time Temperature Precipitation Wind Pressure Humidity
    00:00 +11°C° 0 mm 1 mps 698 mmHg 92%
    01:00 +10°C° 0 mm 1 mps 697 mmHg 93%
    02:00 +10°C° 0 mm 1 mps 697 mmHg 93%
    03:00 +10°C° 0 mm 1 mps 697 mmHg 93%
    04:00 +10°C° 0 mm 1 mps 696 mmHg 93%
    05:00 +11°C° 0 mm 1 mps 696 mmHg 92%
    06:00 +12°C° 0 mm 1 mps 696 mmHg 91%
    07:00 +13°C° 0 mm 2 mps 696 mmHg 90%
    08:00 +14°C° 0.4 mm 2 mps 696 mmHg 91%
    09:00 +14°C° 0.4 mm 2 mps 696 mmHg 91%
    10:00 +14°C° 0.4 mm 2 mps 696 mmHg 91%
    11:00 +15°C° 0.2 mm 2 mps 695 mmHg 89%
    12:00 +16°C° 0.2 mm 3 mps 695 mmHg 86%
    13:00 +17°C° 0.2 mm 3 mps 695 mmHg 84%
    14:00 +17°C° 0.4 mm 3 mps 694 mmHg 82%
    15:00 +17°C° 0.4 mm 4 mps 694 mmHg 80%
    16:00 +18°C° 0.4 mm 4 mps 693 mmHg 79%
    17:00 +17°C° 0.4 mm 4 mps 693 mmHg 83%
    18:00 +16°C° 0.4 mm 3 mps 693 mmHg 88%
    19:00 +14°C° 0.4 mm 3 mps 693 mmHg 93%
    20:00 +13°C° 0.5 mm 3 mps 693 mmHg 94%
    21:00 +12°C° 0.5 mm 4 mps 693 mmHg 95%
    22:00 +12°C° 0.5 mm 4 mps 694 mmHg 96%
    23:00 +11°C° 0.3 mm 3 mps 694 mmHg 96%

    Tomorrow, 5 June, Friday

    Time Temperature Precipitation Wind Pressure Humidity
    00:00 +11°C° 0.3 mm 3 mps 694 mmHg 96%
    01:00 +12°C° 0.3 mm 2 mps 694 mmHg 96%
    02:00 +10°C° 0.1 mm 2 mps 694 mmHg 96%
    03:00 +10°C° 0.1 mm 2 mps 694 mmHg 96%
    04:00 +9°C° 0.1 mm 2 mps 695 mmHg 96%
    05:00 +9°C° 0.4 mm 2 mps 695 mmHg 95%
    06:00 +8°C° 0.4 mm 2 mps 695 mmHg 95%
    07:00 +8°C° 0.4 mm 2 mps 696 mmHg 95%
    08:00 +9°C° 0.1 mm 2 mps 696 mmHg 90%
    09:00 +10°C° 0.1 mm 2 mps 696 mmHg 86%
    10:00 +10°C° 0.1 mm 2 mps 697 mmHg 82%
    11:00 +12°C° 0.2 mm 3 mps 697 mmHg 76%
    12:00 +13°C° 0.2 mm 3 mps 697 mmHg 70%
    13:00 +14°C° 0.2 mm 4 mps 697 mmHg 64%
    14:00 +14°C° 0.2 mm 5 mps 697 mmHg 61%
    15:00 +15°C° 0.2 mm 5 mps 697 mmHg 57%
    16:00 +15°C° 0.2 mm 6 mps 697 mmHg 54%
    17:00 +14°C° 0.2 mm 5 mps 696 mmHg 62%
    18:00 +13°C° 0.2 mm 5 mps 696 mmHg 71%
    19:00 +10°C° 0.2 mm 5 mps 696 mmHg 80%
    20:00 +9°C° 0.5 mm 5 mps 696 mmHg 85%
    21:00 +8°C° 0.5 mm 5 mps 697 mmHg 90%
    22:00 +7°C° 0.5 mm 4 mps 697 mmHg 95%
    23:00 +7°C° 0.8 mm 4 mps 697 mmHg 95%

    Day after tomorrow, 6 June, Saturday

    Time Temperature Precipitation Wind Pressure Humidity
    00:00 +7°C° 0.8 mm 4 mps 697 mmHg 95%
    01:00 +7°C° 0.8 mm 4 mps 697 mmHg 96%
    02:00 +7°C° 0.7 mm 4 mps 697 mmHg 96%
    03:00 +7°C° 0.7 mm 4 mps 697 mmHg 96%
    04:00 +7°C° 0.7 mm 4 mps 697 mmHg 96%
    05:00 +7°C° 0.3 mm 4 mps 698 mmHg 94%
    06:00 +7°C° 0.3 mm 4 mps 698 mmHg 92%
    07:00 +7°C° 0.3 mm 5 mps 699 mmHg 90%
    08:00 +8°C° 0.1 mm 5 mps 700 mmHg 85%
    09:00 +8°C° 0.1 mm 5 mps 700 mmHg 80%
    10:00 +9°C° 0.1 mm 5 mps 701 mmHg 75%
    11:00 +9°C° 0 mm 5 mps 701 mmHg 73%
    12:00 +10°C° 0 mm 5 mps 701 mmHg 70%
    13:00 +12°C° 0 mm 5 mps 701 mmHg 67%
    14:00 +12°C° 0 mm 5 mps 701 mmHg 67%
    15:00 +12°C° 0 mm 5 mps 701 mmHg 67%
    16:00 +13°C° 0 mm 5 mps 701 mmHg 67%
    17:00 +13°C° 0 mm 4 mps 701 mmHg 71%
    18:00 +12°C° 0 mm 3 mps 701 mmHg 74%
    19:00 +12°C° 0 mm 3 mps 701 mmHg 78%
    20:00 +12°C° 0.1 mm 2 mps 702 mmHg 84%
    21:00 +10°C° 0.1 mm 2 mps 702 mmHg 90%
    22:00 +9°C° 0.1 mm 2 mps 702 mmHg 95%
    23:00 +9°C° 0.2 mm 2 mps 702 mmHg 96%

    7 June, Sunday

    Time Temperature Precipitation Wind Pressure Humidity
    00:00 +10°C° 0.2 mm 2 mps 702 mmHg 97%
    01:00 +10°C° 0.2 mm 2 mps 702 mmHg 97%
    02:00 +10°C° 0.2 mm 2 mps 702 mmHg 97%
    03:00 +10°C° 0.2 mm 2 mps 702 mmHg 97%
    04:00 +10°C° 0.2 mm 2 mps 703 mmHg 97%
    05:00 +12°C° 0 mm 2 mps 703 mmHg 93%
    06:00 +12°C° 0 mm 2 mps 703 mmHg 90%
    07:00 +12°C° 0 mm 3 mps 704 mmHg 86%
    08:00 +13°C° 0 mm 3 mps 704 mmHg 76%
    09:00 +14°C° 0 mm 3 mps 704 mmHg 65%
    10:00 +15°C° 0 mm 4 mps 705 mmHg 55%
    11:00 +15°C° 0 mm 4 mps 705 mmHg 57%
    12:00 +14°C° 0 mm 4 mps 705 mmHg 59%
    13:00 +13°C° 0 mm 5 mps 704 mmHg 61%
    14:00 +12°C° 0.5 mm 4 mps 705 mmHg 70%
    15:00 +11°C° 0.5 mm 3 mps 705 mmHg 79%
    16:00 +10°C° 0.5 mm 2 mps 705 mmHg 88%
    17:00 +10°C° 0 mm 2 mps 705 mmHg 87%
    18:00 +10°C° 0 mm 2 mps 705 mmHg 87%
    19:00 +10°C° 0 mm 2 mps 705 mmHg 87%
    20:00 +10°C° 0 mm 2 mps 705 mmHg 89%
    21:00 +10°C° 0 mm 1 mps 706 mmHg 91%
    22:00 +9°C° 0 mm 1 mps 706 mmHg 92%
    23:00 +9°C° 0 mm 1 mps 706 mmHg 93%

    8 June, Monday

    Time Temperature Precipitation Wind Pressure Humidity
    00:00 +8°C° 0 mm 1 mps 706 mmHg 93%
    01:00 +8°C° 0 mm 1 mps 706 mmHg 94%
    02:00 +8°C° 0 mm 1 mps 706 mmHg 94%
    03:00 +8°C° 0 mm 1 mps 706 mmHg 94%
    04:00 +8°C° 0 mm 1 mps 706 mmHg 94%
    05:00 +9°C° 0 mm 1 mps 706 mmHg 90%
    06:00 +10°C° 0 mm 1 mps 706 mmHg 86%
    07:00 +11°C° 0 mm 1 mps 706 mmHg 82%
    08:00 +12°C° 0 mm 2 mps 707 mmHg 72%
    09:00 +14°C° 0 mm 2 mps 707 mmHg 62%
    10:00 +15°C° 0 mm 2 mps 707 mmHg 52%
    11:00 +16°C° 0 mm 2 mps 707 mmHg 50%
    12:00 +16°C° 0 mm 2 mps 707 mmHg 48%
    13:00 +17°C° 0 mm 2 mps 707 mmHg 46%
    14:00 +17°C° 0 mm 2 mps 707 mmHg 48%
    15:00 +17°C° 0 mm 2 mps 706 mmHg 50%
    16:00 +17°C° 0 mm 2 mps 706 mmHg 51%
    17:00 +16°C° 0 mm 2 mps 706 mmHg 58%
    18:00 +15°C° 0 mm 2 mps 706 mmHg 65%
    19:00 +14°C° 0 mm 2 mps 706 mmHg 72%
    20:00 +13°C° 0 mm 2 mps 706 mmHg 78%
    21:00 +10°C° 0 mm 2 mps 706 mmHg 84%
    22:00 +9°C° 0 mm 2 mps 707 mmHg 90%
    23:00 +9°C° 0 mm 2 mps 707 mmHg 91%

    9 June, Tuesday

    Time Temperature Precipitation Wind Pressure Humidity
    00:00 +9°C° 0 mm 2 mps 707 mmHg 92%
    01:00 +9°C° 0 mm 1 mps 707 mmHg 93%
    02:00 +9°C° 0 mm 1 mps 707 mmHg 94%
    03:00 +8°C° 0 mm 1 mps 707 mmHg 95%
    04:00 +8°C° 0 mm 1 mps 706 mmHg 96%
    05:00 +9°C° 0 mm 1 mps 707 mmHg 91%
    06:00 +10°C° 0 mm 2 mps 707 mmHg 86%
    07:00 +12°C° 0 mm 2 mps 708 mmHg 82%
    08:00 +13°C° 0 mm 2 mps 708 mmHg 76%
    09:00 +15°C° 0 mm 2 mps 709 mmHg 70%
    10:00 +16°C° 0 mm 3 mps 709 mmHg 65%
    11:00 +16°C° 0.2 mm 3 mps 709 mmHg 64%
    12:00 +17°C° 0.2 mm 3 mps 709 mmHg 63%
    13:00 +17°C° 0.2 mm 3 mps 709 mmHg 62%
    14:00 +17°C° 0.2 mm 3 mps 709 mmHg 64%
    15:00 +17°C° 0.2 mm 3 mps 709 mmHg 65%
    16:00 +17°C° 0.2 mm 3 mps 708 mmHg 67%
    17:00 +16°C° 0.3 mm 3 mps 708 mmHg 72%
    18:00 +15°C° 0.3 mm 2 mps 708 mmHg 77%
    19:00 +14°C° 0.3 mm 2 mps 708 mmHg 82%
    20:00 +13°C° 0.1 mm 2 mps 709 mmHg 85%
    21:00 +12°C° 0.1 mm 2 mps 709 mmHg 88%
    22:00 +9°C° 0.1 mm 2 mps 709 mmHg 91%
    23:00 +9°C° 0 mm 2 mps 709 mmHg 92%
    Show more